Time,TemperatureF,DewpointF,PressureIn,WindDirection,WindDirectionDegrees,WindSpeedMPH,WindSpeedGustMPH,Humidity,HourlyPrecipIn,Conditions,Clouds,dailyrainin,SolarRadiationWatts/m^2,SoftwareType,DateUTC
2013-07-02 00:10:00,71.5,71.0,29.99,South,170,5.0,9.0,97,0.00,,,0.00,0,weatherlink.com 1.10,2013-07-02 04:10:00,
2013-07-02 00:25:00,71.3,70.0,29.99,SSE,159,5.0,10.0,97,0.00,,,0.00,0,weatherlink.com 1.10,2013-07-02 04:25:00,
2013-07-02 00:40:00,71.1,70.0,29.99,SSE,157,6.0,10.0,97,0.00,,,0.00,0,weatherlink.com 1.10,2013-07-02 04:40:00,
2013-07-02 00:55:00,70.9,70.0,29.99,SSE,168,6.0,9.0,97,0.00,,,0.00,0,weatherlink.com 1.10,2013-07-02 04:55:00,
2013-07-02 01:10:00,70.8,70.0,29.99,SSE,159,7.0,10.0,97,0.00,,,0.00,0,weatherlink.com 1.10,2013-07-02 05:10:00,
2013-07-02 01:25:00,70.8,70.0,30.00,SSE,150,2.0,12.0,97,0.00,,,0.00,0,weatherlink.com 1.10,2013-07-02 05:25:00,
2013-07-02 01:40:00,70.6,70.0,29.99,South,175,4.0,13.0,97,0.00,,,0.00,0,weatherlink.com 1.10,2013-07-02 05:40:00,
2013-07-02 01:55:00,70.4,70.0,30.00,ESE,119,2.0,11.0,97,0.00,,,0.00,0,weatherlink.com 1.10,2013-07-02 05:55:00,
2013-07-02 02:10:00,70.4,70.0,30.00,SE,136,5.0,10.0,97,0.00,,,0.00,0,weatherlink.com 1.10,2013-07-02 06:10:00,
2013-07-02 02:25:00,70.6,70.0,30.00,SSE,148,4.0,9.0,97,0.00,,,0.00,0,weatherlink.com 1.10,2013-07-02 06:25:00,
2013-07-02 02:40:00,70.6,70.0,30.00,SSE,167,4.0,7.0,97,0.00,,,0.00,0,weatherlink.com 1.10,2013-07-02 06:40:00,
2013-07-02 02:55:00,70.6,70.0,30.00,SE,142,6.0,10.0,97,0.00,,,0.00,0,weatherlink.com 1.10,2013-07-02 06:55:00,
2013-07-02 03:10:00,70.6,70.0,30.00,SE,135,5.0,8.0,97,0.00,,,0.00,0,weatherlink.com 1.10,2013-07-02 07:10:00,
2013-07-02 03:25:00,70.6,70.0,30.00,SE,142,5.0,7.0,97,0.00,,,0.00,0,weatherlink.com 1.10,2013-07-02 07:25:00,
2013-07-02 03:40:00,70.4,70.0,30.01,SE,135,5.0,9.0,97,0.00,,,0.00,0,weatherlink.com 1.10,2013-07-02 07:40:00,
2013-07-02 03:55:00,70.4,70.0,30.01,SE,136,7.0,9.0,97,0.00,,,0.00,0,weatherlink.com 1.10,2013-07-02 07:55:00,
2013-07-02 04:10:00,70.4,70.0,30.01,SSE,153,0.0,11.0,97,0.00,,,0.00,0,weatherlink.com 1.10,2013-07-02 08:10:00,
2013-07-02 04:25:00,70.3,69.0,30.01,SE,130,4.0,8.0,97,0.00,,,0.00,0,weatherlink.com 1.10,2013-07-02 08:25:00,
2013-07-02 04:40:00,70.3,69.0,30.01,SSE,154,5.0,7.0,97,0.00,,,0.00,0,weatherlink.com 1.10,2013-07-02 08:40:00,
2013-07-02 04:55:00,70.3,69.0,30.01,SSE,150,4.0,6.0,97,0.00,,,0.00,0,weatherlink.com 1.10,2013-07-02 08:55:00,
2013-07-02 05:10:00,70.1,69.0,30.02,SSE,148,0.0,5.0,97,0.00,,,0.00,0,weatherlink.com 1.10,2013-07-02 09:10:00,
2013-07-02 05:25:00,70.1,69.0,30.02,SSE,148,0.0,0.0,97,0.00,,,0.00,0,weatherlink.com 1.10,2013-07-02 09:25:00,
2013-07-02 05:40:00,70.1,70.0,30.02,SE,128,6.0,8.0,98,0.00,,,0.00,7,weatherlink.com 1.10,2013-07-02 09:40:00,
2013-07-02 05:55:00,70.3,70.0,30.02,SE,145,6.0,7.0,98,0.00,,,0.00,12,weatherlink.com 1.10,2013-07-02 09:55:00,
2013-07-02 06:10:00,70.3,70.0,30.03,SE,144,2.0,9.0,98,0.00,,,0.00,33,weatherlink.com 1.10,2013-07-02 10:10:00,
2013-07-02 06:25:00,70.6,70.0,30.04,SE,127,2.0,9.0,98,0.00,,,0.00,56,weatherlink.com 1.10,2013-07-02 10:25:00,
2013-07-02 06:40:00,70.8,70.0,30.04,ESE,111,6.0,7.0,98,0.00,,,0.00,35,weatherlink.com 1.10,2013-07-02 10:40:00,
2013-07-02 06:55:00,70.9,70.0,30.04,SE,128,0.0,8.0,98,0.00,,,0.00,42,weatherlink.com 1.10,2013-07-02 10:55:00,
2013-07-02 07:10:00,71.3,71.0,30.05,SE,128,7.0,8.0,98,0.00,,,0.00,44,weatherlink.com 1.10,2013-07-02 11:10:00,
2013-07-02 07:25:00,71.3,71.0,30.06,SE,128,1.0,6.0,98,0.00,,,0.00,76,weatherlink.com 1.10,2013-07-02 11:25:00,
2013-07-02 07:40:00,72.0,72.0,30.05,SE,128,3.0,6.0,99,0.00,,,0.00,127,weatherlink.com 1.10,2013-07-02 11:40:00,
2013-07-02 07:55:00,72.5,72.0,30.06,SE,128,4.0,6.0,99,0.00,,,0.00,146,weatherlink.com 1.10,2013-07-02 11:55:00,
2013-07-02 08:10:00,72.8,73.0,30.06,ESE,116,1.0,8.0,99,0.00,,,0.00,153,weatherlink.com 1.10,2013-07-02 12:10:00,
2013-07-02 08:25:00,73.0,72.0,30.06,SE,136,4.0,8.0,98,0.00,,,0.00,128,weatherlink.com 1.10,2013-07-02 12:25:00,
2013-07-02 08:40:00,73.0,72.0,30.06,SE,142,4.0,9.0,98,0.00,,,0.00,69,weatherlink.com 1.10,2013-07-02 12:40:00,
2013-07-02 08:55:00,72.8,72.0,30.06,SE,146,2.0,10.0,97,0.00,,,0.00,90,weatherlink.com 1.10,2013-07-02 12:55:00,
2013-07-02 09:10:00,72.8,72.0,30.06,SSE,150,2.0,11.0,97,0.00,,,0.00,141,weatherlink.com 1.10,2013-07-02 13:10:00,
2013-07-02 09:25:00,73.3,72.0,30.06,SE,124,5.0,8.0,97,0.00,,,0.00,137,weatherlink.com 1.10,2013-07-02 13:25:00,
2013-07-02 09:41:00,73.5,73.0,30.06,South,170,2.0,11.0,97,0.00,,,0.00,176,weatherlink.com 1.10,2013-07-02 13:41:00,
2013-07-02 09:56:00,73.9,73.0,30.06,SSE,148,3.0,6.0,96,0.00,,,0.00,169,weatherlink.com 1.10,2013-07-02 13:56:00,
2013-07-02 10:11:00,74.0,73.0,30.05,SSE,155,5.0,9.0,96,0.00,,,0.00,234,weatherlink.com 1.10,2013-07-02 14:11:00,
2013-07-02 10:26:00,74.6,73.0,30.06,SE,134,5.0,10.0,96,0.00,,,0.00,345,weatherlink.com 1.10,2013-07-02 14:26:00,
2013-07-02 10:41:00,75.3,74.0,30.06,South,169,5.0,8.0,95,0.00,,,0.00,315,weatherlink.com 1.10,2013-07-02 14:41:00,
2013-07-02 10:56:00,75.8,73.0,30.07,ESE,123,7.0,10.0,92,0.00,,,0.00,396,weatherlink.com 1.10,2013-07-02 14:56:00,
2013-07-02 11:11:00,76.8,73.0,30.06,SSE,160,4.0,7.0,89,0.00,,,0.00,192,weatherlink.com 1.10,2013-07-02 15:11:00,
2013-07-02 11:26:00,77.2,74.0,30.06,South,184,6.0,9.0,88,0.00,,,0.00,332,weatherlink.com 1.10,2013-07-02 15:26:00,
2013-07-02 11:41:00,77.9,73.0,30.06,SSE,147,5.0,10.0,85,0.00,,,0.00,508,weatherlink.com 1.10,2013-07-02 15:41:00,
2013-07-02 11:56:00,78.3,73.0,30.06,SE,145,5.0,12.0,83,0.00,,,0.00,243,weatherlink.com 1.10,2013-07-02 15:56:00,
2013-07-02 12:11:00,79.0,73.0,30.06,South,172,6.0,11.0,82,0.00,,,0.00,320,weatherlink.com 1.10,2013-07-02 16:11:00,
2013-07-02 12:26:00,79.4,74.0,30.06,SSE,150,9.0,11.0,84,0.00,,,0.00,373,weatherlink.com 1.10,2013-07-02 16:26:00,
2013-07-02 12:41:00,79.0,74.0,30.05,SSE,154,6.0,11.0,84,0.00,,,0.00,404,weatherlink.com 1.10,2013-07-02 16:41:00,
2013-07-02 12:56:00,78.8,72.0,30.06,South,184,5.0,12.0,80,0.00,,,0.00,142,weatherlink.com 1.10,2013-07-02 16:56:00,
2013-07-02 13:11:00,79.4,74.0,30.06,South,190,4.0,11.0,83,0.00,,,0.00,777,weatherlink.com 1.10,2013-07-02 17:11:00,
2013-07-02 13:26:00,81.1,73.0,30.05,SSE,156,8.0,11.0,77,0.00,,,0.00,485,weatherlink.com 1.10,2013-07-02 17:26:00,
2013-07-02 13:41:00,80.7,74.0,30.05,SSW,196,9.0,16.0,79,0.00,,,0.00,446,weatherlink.com 1.10,2013-07-02 17:41:00,
2013-07-02 13:56:00,81.2,73.0,30.05,SSW,202,4.0,9.0,76,0.00,,,0.00,404,weatherlink.com 1.10,2013-07-02 17:56:00,
2013-07-02 14:11:00,83.0,74.0,30.05,ESE,119,4.0,19.0,74,0.00,,,0.00,454,weatherlink.com 1.10,2013-07-02 18:11:00,
2013-07-02 14:26:00,81.2,72.0,30.05,SE,138,7.0,13.0,74,0.00,,,0.00,327,weatherlink.com 1.10,2013-07-02 18:26:00,
2013-07-02 14:41:00,77.6,70.0,30.05,ESE,111,5.0,14.0,76,0.00,,,0.00,341,weatherlink.com 1.10,2013-07-02 18:41:00,
2013-07-02 14:56:00,75.1,68.0,30.06,East,94,0.0,9.0,78,0.00,,,0.00,260,weatherlink.com 1.10,2013-07-02 18:56:00,
2013-07-02 15:11:00,74.0,67.0,30.06,ENE,74,4.0,5.0,79,0.00,,,0.00,288,weatherlink.com 1.10,2013-07-02 19:11:00,
2013-07-02 15:26:00,72.3,65.0,30.06,NNE,26,0.0,11.0,79,0.00,,,0.00,146,weatherlink.com 1.10,2013-07-02 19:26:00,
2013-07-02 15:41:00,70.6,65.0,30.07,East,83,4.0,7.0,82,0.00,,,0.00,162,weatherlink.com 1.10,2013-07-02 19:41:00,
2013-07-02 15:56:00,69.9,65.0,30.07,SSE,149,1.0,7.0,85,0.00,,,0.00,146,weatherlink.com 1.10,2013-07-02 19:56:00,
2013-07-02 16:11:00,69.8,65.0,30.06,ENE,68,1.0,5.0,85,0.00,,,0.00,128,weatherlink.com 1.10,2013-07-02 20:11:00,
2013-07-02 16:26:00,68.9,64.0,30.06,North,11,0.0,9.0,84,0.00,,,0.00,93,weatherlink.com 1.10,2013-07-02 20:26:00,
2013-07-02 16:41:00,67.6,63.0,30.06,NE,51,0.0,9.0,86,0.00,,,0.00,192,weatherlink.com 1.10,2013-07-02 20:41:00,
2013-07-02 16:56:00,66.6,63.0,30.06,NNE,22,1.0,7.0,88,0.00,,,0.00,49,weatherlink.com 1.10,2013-07-02 20:56:00,
2013-07-02 17:11:00,66.0,63.0,30.07,NNE,22,0.0,7.0,89,0.00,,,0.00,84,weatherlink.com 1.10,2013-07-02 21:11:00,
2013-07-02 17:26:00,65.8,63.0,30.07,ENE,70,0.0,6.0,91,0.00,,,0.00,121,weatherlink.com 1.10,2013-07-02 21:26:00,
2013-07-02 17:41:00,65.5,63.0,30.08,NE,55,0.0,7.0,91,0.00,,,0.00,35,weatherlink.com 1.10,2013-07-02 21:41:00,
2013-07-02 17:56:00,65.2,63.0,30.09,NNE,25,5.0,6.0,92,0.00,,,0.00,47,weatherlink.com 1.10,2013-07-02 21:56:00,
2013-07-02 18:11:00,64.8,63.0,30.09,NE,48,0.0,7.0,92,0.00,,,0.00,37,weatherlink.com 1.10,2013-07-02 22:11:00,
2013-07-02 18:26:00,64.7,63.0,30.09,ESE,102,0.0,6.0,93,0.00,,,0.00,33,weatherlink.com 1.10,2013-07-02 22:26:00,
2013-07-02 18:41:00,64.3,62.0,30.09,ENE,78,0.0,6.0,93,0.00,,,0.00,16,weatherlink.com 1.10,2013-07-02 22:41:00,
2013-07-02 18:56:00,64.0,62.0,30.10,ENE,78,0.0,5.0,94,0.00,,,0.00,11,weatherlink.com 1.10,2013-07-02 22:56:00,
2013-07-02 19:11:00,63.9,62.0,30.11,ENE,78,0.0,0.0,94,0.00,,,0.00,0,weatherlink.com 1.10,2013-07-02 23:11:00,
2013-07-02 19:26:00,63.9,63.0,30.11,ENE,78,0.0,4.0,95,0.00,,,0.00,0,weatherlink.com 1.10,2013-07-02 23:26:00,
2013-07-02 19:41:00,63.7,62.0,30.10,ESE,121,0.0,7.0,95,0.00,,,0.00,0,weatherlink.com 1.10,2013-07-02 23:41:00,
2013-07-02 19:57:00,63.5,62.0,30.10,SE,126,0.0,7.0,95,0.00,,,0.00,0,weatherlink.com 1.10,2013-07-02 23:57:00,
2013-07-02 20:12:00,63.2,62.0,30.11,ESE,119,4.0,7.0,95,0.00,,,0.00,0,weatherlink.com 1.10,2013-07-03 00:12:00,
2013-07-02 20:27:00,63.1,62.0,30.12,ESE,110,0.0,6.0,95,0.00,,,0.00,0,weatherlink.com 1.10,2013-07-03 00:27:00,
2013-07-02 20:42:00,62.7,61.0,30.11,ESE,110,3.0,6.0,95,0.00,,,0.00,0,weatherlink.com 1.10,2013-07-03 00:42:00,
2013-07-02 20:57:00,62.6,62.0,30.12,ESE,110,1.0,6.0,96,0.00,,,0.00,0,weatherlink.com 1.10,2013-07-03 00:57:00,
2013-07-02 21:12:00,62.4,61.0,30.12,ESE,109,0.0,7.0,96,0.00,,,0.00,0,weatherlink.com 1.10,2013-07-03 01:12:00,
2013-07-02 21:27:00,62.3,61.0,30.12,ESE,120,1.0,7.0,96,0.00,,,0.00,0,weatherlink.com 1.10,2013-07-03 01:27:00,
2013-07-02 21:42:00,62.0,61.0,30.13,ESE,121,1.0,3.0,96,0.00,,,0.00,0,weatherlink.com 1.10,2013-07-03 01:42:00,
2013-07-02 21:57:00,61.8,61.0,30.14,ESE,121,0.0,0.0,96,0.00,,,0.00,0,weatherlink.com 1.10,2013-07-03 01:57:00,
2013-07-02 22:12:00,61.6,61.0,30.14,ESE,121,0.0,7.0,96,0.00,,,0.00,0,weatherlink.com 1.10,2013-07-03 02:12:00,
2013-07-02 22:27:00,61.5,60.0,30.14,SE,134,1.0,9.0,96,0.00,,,0.00,0,weatherlink.com 1.10,2013-07-03 02:27:00,
2013-07-02 22:42:00,61.3,60.0,30.14,SE,134,0.0,5.0,96,0.00,,,0.00,0,weatherlink.com 1.10,2013-07-03 02:42:00,
2013-07-02 23:12:00,61.0,60.0,30.13,SE,128,0.0,4.0,96,0.00,,,0.00,0,weatherlink.com 1.10,2013-07-03 03:12:00,
2013-07-02 23:27:00,61.0,60.0,30.14,SE,128,0.0,0.0,96,0.00,,,0.00,0,weatherlink.com 1.10,2013-07-03 03:27:00,